Home   Weather   Grimstad   Past weeks

Flag for Norway Past Weather in Grimstad, Norway — Yesterday and Last 2 Weeks

Now
38 °F

Chilly.


Feels Like: 34 °F
Forecast: 37 / 43 °F
Wind: 5 mph from Northwest

Location: Torungen Fyr

Current Time: Apr 27, 2017 at 3:31:53 am

Latest Report: Apr 27, 2017 at 2:00 am


Visibility: N/A

Pressure: 29.77 "Hg

Humidity: 60%

Dew Point: 25 °F

Location of GrimstadLocation

Past Weather in Grimstad — Graph

°F

Grimstad Temperature Yesterday

Maximum temperature yesterday: 45 °F (at 11:00 am)
Minimum temperature yesterday: 36 °F (at 6:00 am)
Average temperature yesterday: 41 °F

High & Low Weather Summary for the Past Weeks

 TemperatureHumidityPressure
High54 °F (Apr 12, 4:00 pm)98% (Apr 17, 1:00 pm)30.58 "Hg (Apr 17, 1:00 pm)
Low32 °F (Apr 16, 6:00 am)26% (Apr 22, 3:00 pm)29.35 "Hg (Apr 24, 9:00 am)
Average42 °F66%29.88 "Hg
* Reported Apr 12 2:00 am — Apr 27 2:00 am, Grimstad, Weather by CustomWeather, © 2017

Note: Actual official high and low records may vary slightly from our data, if they occured in-between our weather recording intervals... More about our weather records

Advertising

Grimstad Weather History for the Previous 24 Hours

Scroll right to see more
 ConditionsComfort  
Time TempWeatherWind HumidityBarometerVisibility
2:00 am
Thu, Apr 27
38 °FChilly.5 mph60%29.77 "HgN/A
1:00 am39 °FChilly.7 mph56%29.78 "HgN/A
12:00 am39 °FChilly.5 mph70%29.78 "HgN/A
11:00 pm
Wed, Apr 26
41 °FQuite cool.3 mph74%29.79 "HgN/A
8:00 pm45 °FQuite cool.6 mph71%29.80 "HgN/A
7:00 pm45 °FQuite cool.12 mph66%29.79 "HgN/A
6:00 pm45 °FQuite cool.13 mph65%29.80 "HgN/A
5:00 pm45 °FQuite cool.12 mph62%29.80 "HgN/A
4:00 pm44 °FQuite cool.12 mph57%29.81 "HgN/A
3:00 pm44 °FQuite cool.10 mph55%29.83 "HgN/A
2:00 pm44 °FQuite cool.8 mph46%29.83 "HgN/A
1:00 pm45 °FCool.7 mph43%29.83 "HgN/A
12:00 pm45 °FCool.3 mph38%29.82 "HgN/A
11:00 am45 °FCool.3 mph36%29.81 "HgN/A
10:00 am44 °FQuite cool.3 mph35%29.81 "HgN/A
9:00 am42 °FQuite cool.5 mph46%29.81 "HgN/A
8:00 am39 °FChilly.7 mph51%29.80 "HgN/A
7:00 am36 °FChilly.6 mph55%29.78 "HgN/A
6:00 am36 °FChilly.6 mph57%29.76 "HgN/A
5:00 am36 °FChilly.7 mph60%29.75 "HgN/A
4:00 am36 °FChilly.7 mph62%29.74 "HgN/A
3:00 am38 °FChilly.6 mph57%29.72 "HgN/A
Weather by CustomWeather, © 2017

See weather overviewHow to use our weather pages